Weather in Zurich

Switzerland     47°23′13″N   8°32′02″E
temp.,
°C
wind,
m/s
gust,
m/s
humid.,
%
clouds,
%
prec.,
mm/h
press.,
hPa
HPBL,
m
2 march, tue
tue201:00+1e11870 0.0 103222
04:000e01820 0.0 103222
07:000ene11690 0.0 103321
10:00+6ne00420 0.0 1032235
13:00+12e01300 0.0 1031377
16:00+13e113119 0.0 1030358
19:00+6ne115137 0.0 103222
22:00+4e11654 0.0 103322
3 march, wed
wed301:00+2ese01737 0.0 103322
04:00+2ese00739 0.0 103222
07:00+1se01728 0.0 103322
10:00+8w01450 0.0 1031236
13:00+13sw12380 0.0 1030473
16:00+14sw12430 0.0 1027587
19:00+8s115830 0.0 102822
22:00+6ssw01710 0.0 102822
4 march, thu
thu401:00+4ssw11770 0.0 102622
04:00+4ssw117723 0.0 102522
07:00+3ssw117160 0.0 102422
10:00+8wsw1359100 0.0 1022321
13:00+12wsw2454100 0.0 1020743
16:00+12w2559100 0.1 10171431
19:00+7w21087100 1.3 1018543
22:00+7sw1190100 0.4 101980
5 march, fri
fri501:00+5wsw129290 0.6 1018116
04:00+5wsw139389 0.4 1018126
07:00+3wnw119759 0.6 101932
10:00+5nne139498 1.1 1019285
13:00+4ne259299 3.3 1020504
16:00+4ene2589100 1.7 1020523
19:00+2ene3787100 2.0 1023751
22:00−1ne298828 0.0 1026335
6 march, sat
sat601:00−1ne4108919 0.0 1027527
04:00−2ne4108922 0.0 1028485
07:00−2ne4108730 0.0 1029571
10:00+1ene596972 0.0 1029838
13:00+6ene594537 0.0 10271201
16:00+6ne58390 0.0 10271210
19:00+1ne411560 0.0 1028469
22:00−2ne310640 0.0 1030367